Weather History for Sparta, WI

Change the Weather History Date:

Friday, November 16, 2012

  Actual Average Record
Temperature  
Mean Temperature 32 °F -  
Max Temperature 46 °F 43 °F 71 °F (1953)
Min Temperature 17 °F 24 °F 6 °F (1959)
Degree Days  
Heating Degree Days 34    
Moisture  
Dew Point 26 °F    
Average Humidity 85    
Maximum Humidity 100    
Minimum Humidity 57    
Precipitation  
Precipitation 0.00 in - - ()
Sea Level Pressure  
Sea Level Pressure 30.44 in    
Wind  
Wind Speed 1 mph (East)    
Max Wind Speed 8 mph    
Max Gust Speed -    
Visibility 10 miles    
Events      
Averages and records for this station are not official NWS values.
T = Trace of Precipitation, MM = Missing Value Source: NWS Daily Summary

Daily Weather History Graph

Daily Weather History Graph

Search for Another Location

Airport:

Trip Planner

Search our weather history database for the weather conditions in past years. The results will help you decide how hot, cold, wet, or windy it might be!

Date:

Astronomy

Nov. 16, 2012 Rise Set
Actual Time 6:59 AM CST 4:35 PM CST
Civil Twilight 6:28 AM CST 5:06 PM CST
Nautical Twilight 5:53 AM CST 5:41 PM CST
Astronomical Twilight 5:19 AM CST 6:15 PM CST
Moon 9:56 AM CST (11/16) 7:33 PM CST (11/16)
Length of Visible Light 10h 38m
Length of Day
9h 35m
Waxing Crescent, 12% of the Moon is Illuminated
Nov 16
Waxing Crescent
Nov 20
First Quarter
Nov 28
Full
Dec 6
Last Quarter
Dec 13
New

Hourly Weather History & Observations

Time (CST) Temp. Windchill Dew Point Humidity Pressure Visibility Wind Dir Wind Speed Gust Speed Precip Events Conditions
12:15 AM 24.8 °F - 23.0 °F 93% 30.41 in 10.0 mi Calm Calm - N/A   Clear
12:35 AM 23.0 °F - 23.0 °F 100% 30.41 in 10.0 mi Calm Calm - N/A   Clear
12:55 AM 23.0 °F - 23.0 °F 100% 30.42 in 10.0 mi Calm Calm - N/A   Clear
1:15 AM 23.0 °F - 21.2 °F 93% 30.42 in 10.0 mi Calm Calm - N/A   Clear
1:35 AM 23.0 °F - 23.0 °F 100% 30.43 in 10.0 mi Calm Calm - N/A   Clear
1:55 AM 23.0 °F - 23.0 °F 100% 30.43 in 10.0 mi Calm Calm - N/A   Clear
2:15 AM 23.0 °F - 21.2 °F 93% 30.44 in 10.0 mi Calm Calm - N/A   Clear
2:35 AM 23.0 °F - 21.2 °F 93% 30.44 in 10.0 mi Calm Calm - N/A   Clear
2:55 AM 21.2 °F - 21.2 °F 100% 30.44 in 10.0 mi Calm Calm - N/A   Clear
3:15 AM 21.2 °F - 21.2 °F 100% 30.44 in 10.0 mi Calm Calm - N/A   Clear
3:35 AM 21.2 °F - 21.2 °F 100% 30.44 in 10.0 mi Calm Calm - N/A   Clear
3:55 AM 21.2 °F - 19.4 °F 93% 30.44 in 10.0 mi Calm Calm - N/A   Clear
4:15 AM 19.4 °F - 19.4 °F 100% 30.44 in 10.0 mi Calm Calm - N/A   Clear
4:35 AM 19.4 °F - 19.4 °F 100% 30.44 in 10.0 mi Calm Calm - N/A   Clear
4:55 AM 19.4 °F - 19.4 °F 100% 30.45 in 10.0 mi Calm Calm - N/A   Clear
5:15 AM 19.4 °F - 17.6 °F 93% 30.44 in 10.0 mi Calm Calm - N/A   Clear
5:35 AM 19.4 °F - 17.6 °F 93% 30.45 in 10.0 mi Calm Calm - N/A   Clear
5:55 AM 17.6 °F - 17.6 °F 100% 30.45 in 10.0 mi Calm Calm - N/A   Clear
6:15 AM 17.6 °F - 17.6 °F 100% 30.45 in 10.0 mi Calm Calm - N/A   Clear
6:35 AM 17.6 °F - 17.6 °F 100% 30.45 in 10.0 mi Calm Calm - N/A   Clear
6:55 AM 17.6 °F - 15.8 °F 93% 30.46 in 10.0 mi Calm Calm - N/A   Clear
7:15 AM 17.6 °F - 15.8 °F 93% 30.47 in 10.0 mi Calm Calm - N/A   Clear
7:35 AM 17.6 °F - 17.6 °F 100% 30.47 in 10.0 mi Calm Calm - N/A   Clear
7:55 AM 21.2 °F - 19.4 °F 93% 30.47 in 10.0 mi Calm Calm - N/A   Clear
8:15 AM 23.0 °F - 21.2 °F 93% 30.47 in 10.0 mi Calm Calm - N/A   Clear
8:35 AM 26.6 °F - 23.0 °F 86% 30.47 in 10.0 mi Calm Calm - N/A   Clear
8:55 AM 28.4 °F - 24.8 °F 86% 30.48 in 10.0 mi Calm Calm - N/A   Clear
9:15 AM 32.0 °F - 24.8 °F 75% 30.48 in 10.0 mi Calm Calm - N/A   Clear
9:35 AM 32.0 °F - 26.6 °F 80% 30.49 in 10.0 mi Calm Calm - N/A   Clear
9:55 AM 33.8 °F 29.6 °F 28.4 °F 81% 30.49 in 10.0 mi East 4.6 mph - N/A   Clear
10:15 AM 37.4 °F 31.4 °F 28.4 °F 70% 30.49 in 10.0 mi East 8.1 mph - N/A   Clear
10:35 AM 37.4 °F 32.8 °F 28.4 °F 70% 30.49 in 10.0 mi East 5.8 mph - N/A   Clear
10:55 AM 39.2 °F 35.0 °F 28.4 °F 65% 30.49 in 10.0 mi East 5.8 mph - N/A   Clear
11:15 AM 39.2 °F 35.9 °F 28.4 °F 65% 30.48 in 10.0 mi NE 4.6 mph - N/A   Clear
11:35 AM 41.0 °F 38.0 °F 30.2 °F 65% 30.48 in 10.0 mi East 4.6 mph - N/A   Clear
11:55 AM 42.8 °F 40.1 °F 30.2 °F 61% 30.47 in 10.0 mi NNE 4.6 mph - N/A   Clear
12:15 PM 42.8 °F 41.1 °F 30.2 °F 61% 30.47 in 10.0 mi ESE 3.5 mph - N/A   Clear
12:35 PM 42.8 °F 38.6 °F 30.2 °F 61% 30.47 in 10.0 mi East 6.9 mph - N/A   Clear
12:55 PM 44.6 °F 43.1 °F 30.2 °F 57% 30.47 in 10.0 mi SE 3.5 mph - N/A   Clear
1:15 PM 44.6 °F - 30.2 °F 57% 30.46 in 10.0 mi Calm Calm - N/A   Clear
1:35 PM 46.4 °F 44.3 °F 32.0 °F 57% 30.46 in 10.0 mi East 4.6 mph - N/A   Clear
1:55 PM 44.6 °F 42.2 °F 32.0 °F 61% 30.46 in 10.0 mi NE 4.6 mph - N/A   Clear
2:15 PM 46.4 °F 44.3 °F 32.0 °F 57% 30.45 in 10.0 mi ESE 4.6 mph - N/A   Clear
2:35 PM 46.4 °F 44.3 °F 32.0 °F 57% 30.45 in 10.0 mi ESE 4.6 mph - N/A   Clear
2:55 PM 46.4 °F 43.5 °F 32.0 °F 57% 30.44 in 10.0 mi East 5.8 mph - N/A   Clear
3:15 PM 46.4 °F 43.5 °F 32.0 °F 57% 30.43 in 10.0 mi East 5.8 mph - N/A   Clear
3:35 PM 44.6 °F 40.7 °F 32.0 °F 61% 30.43 in 10.0 mi ESE 6.9 mph - N/A   Clear
3:55 PM 44.6 °F 40.2 °F 32.0 °F 61% 30.43 in 10.0 mi ESE 8.1 mph - N/A   Clear
4:15 PM 42.8 °F 40.1 °F 32.0 °F 66% 30.43 in 10.0 mi ESE 4.6 mph - N/A   Clear
4:35 PM 41.0 °F 39.0 °F 32.0 °F 70% 30.43 in 10.0 mi East 3.5 mph - N/A   Clear
4:55 PM 39.2 °F 35.9 °F 32.0 °F 75% 30.43 in 10.0 mi East 4.6 mph - N/A   Clear
5:15 PM 35.6 °F 31.7 °F 30.2 °F 81% 30.43 in 10.0 mi East 4.6 mph - N/A   Clear
5:35 PM 32.0 °F 27.5 °F 30.2 °F 93% 30.43 in 10.0 mi East 4.6 mph - N/A   Clear
5:55 PM 32.0 °F - 30.2 °F 93% 30.43 in 10.0 mi Calm Calm - N/A   Clear
6:15 PM 32.0 °F - 28.4 °F 87% 30.43 in 10.0 mi Calm Calm - N/A   Clear
6:35 PM 30.2 °F - 28.4 °F 93% 30.43 in 10.0 mi Calm Calm - N/A   Clear
6:55 PM 30.2 °F 24.3 °F 28.4 °F 93% 30.41 in 10.0 mi ESE 5.8 mph - N/A   Clear
7:15 PM 32.0 °F 26.4 °F 30.2 °F 93% 30.41 in 10.0 mi ESE 5.8 mph - N/A   Clear
7:35 PM 32.0 °F 25.6 °F 32.0 °F 100% 30.40 in 10.0 mi East 6.9 mph - N/A   Clear
7:55 PM 32.0 °F - 30.2 °F 93% 30.41 in 10.0 mi Calm Calm - N/A   Clear
8:15 PM 32.0 °F - 32.0 °F 100% 30.41 in 10.0 mi Calm Calm - N/A   Clear
8:35 PM 30.2 °F - 28.4 °F 93% 30.40 in 10.0 mi Calm Calm - N/A   Clear
8:55 PM 28.4 °F - 28.4 °F 100% 30.41 in 7.0 mi Calm Calm - N/A   Clear
9:15 PM 28.4 °F - 28.4 °F 100% 30.41 in 10.0 mi Calm Calm - N/A   Clear
9:35 PM 28.4 °F - 28.4 °F 100% 30.42 in 7.0 mi Calm Calm - N/A   Clear
9:55 PM 26.6 °F - 26.6 °F 100% 30.42 in 5.0 mi Calm Calm - N/A   Clear
10:15 PM 28.4 °F - 26.6 °F 93% 30.42 in 7.0 mi Calm Calm - N/A   Clear
10:35 PM 26.6 °F - 26.6 °F 100% 30.42 in 10.0 mi Calm Calm - N/A   Clear
10:55 PM 26.6 °F - 26.6 °F 100% 30.42 in 7.0 mi Calm Calm - N/A   Clear
11:15 PM 26.6 °F - 24.8 °F 93% 30.42 in 10.0 mi Calm Calm - N/A   Clear
11:35 PM 26.6 °F - 24.8 °F 93% 30.43 in 10.0 mi Calm Calm - N/A   Clear
11:55 PM 24.8 °F - 23.0 °F 93% 30.43 in 10.0 mi Calm Calm - N/A   Clear